Weather History for Washington, IA

Change the Weather History Date:

Sunday, November 11, 2012

  Actual Average Record
Temperature  
Mean Temperature 44 °F -  
Max Temperature 62 °F 49 °F 69 °F (2005)
Min Temperature 26 °F 32 °F 19 °F (2013)
Degree Days  
Heating Degree Days 21    
Moisture  
Dew Point 40 °F    
Average Humidity 81    
Maximum Humidity 100    
Minimum Humidity 59    
Precipitation  
Precipitation 0.94 in - - ()
Sea Level Pressure  
Sea Level Pressure 29.84 in    
Wind  
Wind Speed 18 mph (WSW)    
Max Wind Speed 24 mph    
Max Gust Speed 32 mph    
Visibility 9 miles    
Events Rain    
Averages and records for this station are not official NWS values.
T = Trace of Precipitation, MM = Missing Value Source: NWS Daily Summary

Daily Weather History Graph

Daily Weather History Graph

Search for Another Location

Airport:

Trip Planner

Search our weather history database for the weather conditions in past years. The results will help you decide how hot, cold, wet, or windy it might be!

Date:

Astronomy

Nov. 11, 2012 Rise Set
Actual Time 6:50 AM CST 4:50 PM CST
Civil Twilight 6:21 AM CST 5:19 PM CST
Nautical Twilight 5:48 AM CST 5:53 PM CST
Astronomical Twilight 5:15 AM CST 6:25 PM CST
Moon 4:03 AM CST (11/11) 3:15 PM CST (11/11)
Length of Visible Light 10h 58m
Length of Day
9h 59m
Waning Crescent, 7% of the Moon is Illuminated
Nov 11
Waning Crescent
Nov 13
New
Nov 20
First Quarter
Nov 28
Full
Dec 6
Last Quarter

Hourly Weather History & Observations

Time (CST) Temp. Windchill Dew Point Humidity Pressure Visibility Wind Dir Wind Speed Gust Speed Precip Events Conditions
12:35 AM 62.6 °F - 48.2 °F 59% 29.76 in 10.0 mi South 24.2 mph 32.2 mph N/A   Clear
12:55 AM 62.6 °F - 50.0 °F 63% 29.77 in 10.0 mi South 24.2 mph 32.2 mph N/A   Clear
1:15 AM 62.6 °F - 51.8 °F 68% 29.77 in 10.0 mi South 23.0 mph 27.6 mph N/A   Clear
1:35 AM 62.6 °F - 51.8 °F 68% 29.78 in 10.0 mi South 21.9 mph 27.6 mph N/A   Scattered Clouds
1:55 AM 62.6 °F - 51.8 °F 68% 29.78 in 10.0 mi South 19.6 mph 25.3 mph N/A Rain Light Rain
2:15 AM 62.6 °F - 51.8 °F 68% 29.78 in 10.0 mi South 17.3 mph 23.0 mph N/A   Scattered Clouds
2:35 AM 62.6 °F - 51.8 °F 68% 29.78 in 10.0 mi South 17.3 mph 27.6 mph N/A   Clear
2:55 AM 62.6 °F - 51.8 °F 68% 29.78 in 10.0 mi South 18.4 mph 25.3 mph N/A   Scattered Clouds
3:15 AM 62.6 °F - 53.6 °F 72% 29.77 in 10.0 mi SSW 17.3 mph - N/A Rain Light Rain
3:35 AM 62.6 °F - 53.6 °F 72% 29.78 in 7.0 mi South 19.6 mph 23.0 mph 0.01 in Rain Rain
3:55 AM 60.8 °F - 55.4 °F 82% 29.78 in 10.0 mi SSW 12.7 mph - 0.02 in Rain Light Rain
4:15 AM 60.8 °F - 55.4 °F 82% 29.78 in 10.0 mi SSW 10.4 mph - N/A Rain Light Rain
4:35 AM 60.8 °F - 53.6 °F 77% 29.77 in 10.0 mi South 12.7 mph - N/A   Overcast
4:55 AM 60.8 °F - 53.6 °F 77% 29.76 in 10.0 mi South 10.4 mph - N/A   Overcast
5:15 AM 60.8 °F - 53.6 °F 77% 29.75 in 10.0 mi SSE 9.2 mph - N/A   Overcast
5:35 AM 60.8 °F - 53.6 °F 77% 29.74 in 10.0 mi SSE 12.7 mph - N/A   Overcast
5:55 AM 60.8 °F - 53.6 °F 77% 29.73 in 10.0 mi SSE 11.5 mph - N/A   Overcast
6:15 AM 60.8 °F - 53.6 °F 77% 29.73 in 10.0 mi South 10.4 mph - N/A   Overcast
6:35 AM 62.6 °F - 53.6 °F 72% 29.71 in 10.0 mi SSE 16.1 mph 20.7 mph N/A   Overcast
6:55 AM 62.6 °F - 51.8 °F 68% 29.70 in 10.0 mi South 17.3 mph - N/A   Mostly Cloudy
7:35 AM 62.6 °F - 51.8 °F 68% 29.69 in 10.0 mi SSE 18.4 mph 25.3 mph N/A   Mostly Cloudy
7:55 AM 62.6 °F - 53.6 °F 72% 29.68 in 10.0 mi South 21.9 mph 27.6 mph N/A   Mostly Cloudy
8:15 AM 62.6 °F - 53.6 °F 72% 29.67 in 10.0 mi South 18.4 mph 27.6 mph N/A   Scattered Clouds
8:35 AM 60.8 °F - 53.6 °F 77% 29.68 in 10.0 mi South 23.0 mph 27.6 mph N/A   Mostly Cloudy
9:35 AM 60.8 °F - 53.6 °F 77% 29.69 in 10.0 mi South 18.4 mph 24.2 mph 0.07 in Rain Light Rain
9:55 AM 60.8 °F - 55.4 °F 82% 29.71 in 7.0 mi West 9.2 mph 24.2 mph 0.10 in Rain Rain
10:15 AM 57.2 °F - 55.4 °F 94% 29.72 in 10.0 mi West 8.1 mph - 0.04 in Rain Light Rain
10:35 AM 53.6 °F - 50.0 °F 88% 29.74 in 10.0 mi WNW 20.7 mph 26.5 mph 0.11 in Rain Rain
10:55 AM 50.0 °F - 48.2 °F 94% 29.74 in 10.0 mi WNW 12.7 mph 18.4 mph 0.18 in Rain Light Rain
11:15 AM 48.2 °F - 46.4 °F 93% 29.73 in 7.0 mi NW 13.8 mph - 0.05 in Rain Rain
11:35 AM 48.2 °F - 46.4 °F 93% 29.74 in 7.0 mi WNW 12.7 mph - 0.09 in Rain Rain
11:55 AM 46.4 °F 40.1 °F 46.4 °F 100% 29.73 in 10.0 mi WNW 15.0 mph - 0.15 in Rain Light Rain
12:15 PM 46.4 °F 40.4 °F 44.6 °F 93% 29.75 in 10.0 mi West 13.8 mph 18.4 mph 0.04 in Rain Rain
12:35 PM 44.6 °F 36.9 °F 42.8 °F 93% 29.75 in 10.0 mi WNW 18.4 mph 24.2 mph 0.11 in Rain Rain
12:55 PM 42.8 °F 35.1 °F 39.2 °F 87% 29.77 in 10.0 mi WNW 16.1 mph 24.2 mph 0.13 in Rain Rain
1:15 PM 39.2 °F 30.5 °F 37.4 °F 93% 29.79 in 10.0 mi West 16.1 mph 19.6 mph 0.02 in Rain Light Rain
1:35 PM 39.2 °F 32.0 °F 39.2 °F 100% 29.78 in 10.0 mi West 11.5 mph - 0.05 in Rain Light Rain
1:55 PM 39.2 °F 31.2 °F 37.4 °F 93% 29.78 in 4.0 mi West 13.8 mph 18.4 mph 0.10 in Rain Rain
2:15 PM 39.2 °F 29.8 °F 37.4 °F 93% 29.79 in 2.5 mi West 18.4 mph 21.9 mph 0.08 in Rain Heavy Rain
2:35 PM 37.4 °F 28.5 °F 37.4 °F 100% 29.82 in 5.0 mi West 15.0 mph - 0.14 in Rain Rain
2:55 PM 37.4 °F 28.2 °F 35.6 °F 93% 29.82 in 2.0 mi WNW 16.1 mph - 0.18 in Rain Rain
3:15 PM 37.4 °F 27.8 °F 35.6 °F 93% 29.84 in 3.0 mi WNW 17.3 mph 20.7 mph 0.02 in Rain Light Rain
3:35 PM 35.6 °F 25.5 °F 33.8 °F 93% 29.86 in 2.5 mi WNW 17.3 mph - 0.04 in Rain Rain
3:55 PM 35.6 °F 27.1 °F 33.8 °F 93% 29.86 in 3.0 mi WNW 12.7 mph - 0.06 in Rain Rain
4:15 PM 35.6 °F 25.2 °F 33.8 °F 93% 29.90 in 3.0 mi WNW 18.4 mph 24.2 mph 0.02 in Rain Light Rain
4:35 PM 35.6 °F 25.2 °F 33.8 °F 93% 29.88 in 10.0 mi WNW 18.4 mph - 0.02 in Rain Light Rain
4:55 PM 35.6 °F 25.9 °F 32.0 °F 87% 29.90 in 10.0 mi WNW 16.1 mph - 0.02 in   Overcast
5:15 PM 33.8 °F 22.8 °F 32.0 °F 93% 29.93 in 4.0 mi West 18.4 mph 23.0 mph N/A   Overcast
5:35 PM 33.8 °F 23.2 °F 30.2 °F 87% 29.92 in 10.0 mi WNW 17.3 mph 26.5 mph N/A   Overcast
5:55 PM 33.8 °F 22.8 °F 30.2 °F 87% 29.92 in 10.0 mi WNW 18.4 mph - N/A   Overcast
6:15 PM 33.8 °F 23.5 °F 30.2 °F 87% 29.95 in 10.0 mi WNW 16.1 mph 19.6 mph N/A   Overcast
6:35 PM 32.0 °F 23.0 °F 30.2 °F 93% 29.96 in 10.0 mi WNW 11.5 mph 25.3 mph N/A   Overcast
6:55 PM 32.0 °F 20.1 °F 28.4 °F 87% 29.98 in 10.0 mi West 19.6 mph 24.2 mph N/A   Overcast
7:15 PM 32.0 °F 21.6 °F 28.4 °F 87% 29.98 in 10.0 mi West 15.0 mph 19.6 mph N/A   Overcast
7:35 PM 32.0 °F 20.5 °F 28.4 °F 87% 29.99 in 10.0 mi WNW 18.4 mph 24.2 mph N/A   Overcast
7:55 PM 32.0 °F 20.5 °F 26.6 °F 80% 30.02 in 10.0 mi WNW 18.4 mph 25.3 mph N/A   Overcast
8:15 PM 32.0 °F 22.1 °F 26.6 °F 80% 30.03 in 10.0 mi WNW 13.8 mph - N/A   Overcast
8:35 PM 32.0 °F 21.2 °F 24.8 °F 75% 30.03 in 10.0 mi WNW 16.1 mph 21.9 mph N/A   Overcast
8:55 PM 32.0 °F 20.5 °F 24.8 °F 75% 30.02 in 10.0 mi WNW 18.4 mph 21.9 mph N/A   Overcast
9:15 PM 30.2 °F 16.8 °F 24.8 °F 80% 30.04 in 10.0 mi WNW 23.0 mph - N/A   Overcast
9:35 PM 30.2 °F 17.1 °F 21.2 °F 69% 30.04 in 10.0 mi WNW 21.9 mph 26.5 mph N/A   Mostly Cloudy
9:55 PM 30.2 °F 17.8 °F 21.2 °F 69% 30.06 in 10.0 mi WNW 19.6 mph 26.5 mph N/A   Mostly Cloudy
10:15 PM 28.4 °F 18.5 °F 21.2 °F 74% 30.08 in 10.0 mi WNW 11.5 mph - N/A   Mostly Cloudy
10:35 PM 28.4 °F 17.0 °F 21.2 °F 74% 30.09 in 10.0 mi West 15.0 mph 21.9 mph N/A   Overcast
10:55 PM 28.4 °F 17.5 °F 19.4 °F 69% 30.09 in 10.0 mi WNW 13.8 mph 20.7 mph N/A   Scattered Clouds
11:15 PM 26.6 °F 15.2 °F 19.4 °F 74% 30.09 in 10.0 mi West 13.8 mph - N/A   Clear
11:35 PM 26.6 °F 14.7 °F 19.4 °F 74% 30.09 in 10.0 mi WNW 15.0 mph 20.7 mph N/A   Clear
11:55 PM 26.6 °F 15.7 °F 17.6 °F 69% 30.10 in 10.0 mi WNW 12.7 mph 21.9 mph N/A   Clear